053  
ASUS41 KBOX 060204  
RWRBOX  
 
REGIONAL WEATHER ROUNDUP  
NATIONAL WEATHER SERVICE BOSTON/NORTON MA  
900 PM EST SAT DEC 05 2020  
 
NOTE: "FAIR" INDICATES FEW OR NO CLOUDS BELOW 12,000 FEET WITH NO  
SIGNIFICANT WEATHER AND/OR S TO VISIBILITY
.  
 
MAZALL-060300-  
EASTERN MASSACHUSETTS  
 
CITY SKY/WX TMP DP RH WIND PRES REMARKS
 
BOSTON FLURRIES 35 33 92 W28G36 29.36R WCI 22  
BEVERLY FLURRIES 36 33 89 NW22G36 29.32R WCI 25  
LAWRENCE LGT RAIN 35 32 88 NW17G41 29.37R WCI 25  
BEDFORD LGT RAIN 35 34 96 NW21G30 29.39R FOG WCI 24  
BLUE HILL N/A 32 32 100 NW23G40 29.34R WCI 19  
NORWOOD CLOUDY 37 32 82 NW18G28 29.41R WCI 27  
MARSHFIELD LGT RAIN 37 36 93 W14G36 29.34R WCI 29  
PLYMOUTH LGT SNOW 35 32 88 W20G31 29.37R FOG WCI 24  
TAUNTON LGT RAIN 37 33 85 NW10G25 29.41R WCI 30  
NEW BEDFORD MIX PCPN 36 36 100 W23G33 29.41R WCI 24  

 
 
MAZALL-060300-  
CAPE COD AND THE ISLANDS  
 
CITY SKY/WX TMP DP RH WIND PRES REMARKS
 
FALMOUTH LGT RAIN 36 34 93 NW29G39 29.36R FOG WCI 23  
HYANNIS LGT RAIN 36 34 92 W18G32 29.31R WCI 26  
CHATHAM RAIN 37 34 89 W20G31 29.30R FOG WCI 27  
NANTUCKET CLOUDY 41 36 82 W28G44 29.36R WCI 30  
MARTHAS VNYRD LGT RAIN 39 35 86 W28G40 29.42R WCI 28  

 
 
MAZALL-060300-  
CENTRAL AND WESTERN MASSACHUSETTS  
 
CITY SKY/WX TMP DP RH WIND PRES REMARKS
 
WORCESTER LGT SNOW 33 30 88 NW32G40 29.44R FOG WCI 19  
FITCHBURG FLURRIES 36 32 85 NW20G31 29.46R WCI 25  
ORANGE CLOUDY 35 31 85 NW17G31 29.54S WCI 25  
SPRINGFIELD CLOUDY 38 28 67 NW17G25 29.56S WCI 28  
WESTFIELD CLOUDY 38 29 70 NW14G33 29.58S WCI 30  
NORTH ADAMS CLOUDY 36 27 69 W15G23 29.66R WCI 27  
PITTSFIELD PTCLDY 33 25 72 NW13G23 29.63R WCI 24  

 
 
RIZALL-060300-  
RHODE ISLAND  
 
CITY SKY/WX TMP DP RH WIND PRES REMARKS
 
PROVIDENCE FLURRIES 36 35 96 NW21G37 29.46R WCI 25  
NEWPORT LGT RAIN 37 34 89 NW25G39 29.45R WCI 25  
BLOCK ISLAND CLOUDY 39 32 76 NW22G35 29.55R WCI 29  
SMITHFIELD LGT SNOW 33 33 100 NW17G36 29.45R FOG WCI 22  
WESTERLY LGT RAIN 38 31 76 W8G21 29.54R  

 
 
CTZALL-060300-  
CONNECTICUT  
 
CITY SKY/WX TMP DP RH WIND PRES REMARKS
 
BRADLEY INTL CLOUDY 39 28 64 NW17G32 29.60R WCI 30  
HARTFORD CLOUDY 40 28 62 NW15G25 29.62R WCI 32  
BRIDGEPORT PTCLDY 41 27 57 NW23G32 29.66S WCI 31  
DANBURY CLEAR 37 25 61 W8 29.69S WCI 31  
GROTON CLOUDY 39 31 72 NW16G26 29.56R WCI 30  
NEW HAVEN CLOUDY 41 30 65 NW16 29.64S  
CHESTER N/A 37 28 70 NW16G28 29.59R WCI 28  
MERIDEN MOCLDY 39 27 62 NW18G30 29.63S WCI 30  
WILLIMANTIC MOCLDY 37 30 75 NW14G21 29.56R WCI 28  
OXFORD MOCLDY 35 29 78 NW10G23 29.64S WCI 27  

 
 
MEZ002-015-021-024-NHZ003-005-008-011-012-014-VTZ005-008-060300-  
NORTHERN NEW ENGLAND  
 
CITY SKY/WX TMP DP RH WIND PRES REMARKS
 
PORTLAND ME LGT SNOW 34 33 96 NW22G33 29.22F FOG WCI 22  
BANGOR ME SLEET 35 33 92 N29G40 29.26F FOG WCI 22  
CONCORD NH LGT SNOW 34 31 88 NW18G33 29.41S FOG WCI 23  
MANCHESTER NH LGT SNOW 36 31 82 NW20G33 29.38F WCI 25  
NASHUA NH LGT SNOW 35 35 100 NW23G32 29.41S FOG WCI 23  
PORTSMOUTH NH LGT SNOW 34 32 94 NW16G25 29.28R FOG WCI 23  
JAFFREY NH LGT SNOW 34 29 82 NW10G24 29.47S WCI 26  
KEENE NH LGT SNOW 33 32 96 NW12 29.54S FOG WCI 24  
BURLINGTON VT CLOUDY 32 24 72 N20G35 29.77R WCI 20  
MT. WASHINGTON SNOW 14 14 100 N61G81 N/A VSB 1/16WCI -13  

 
 
NYZ052-076-060300-  
EASTERN NEW YORK  
 
CITY SKY/WX TMP DP RH WIND PRES REMARKS
 
ALBANY CLOUDY 33 26 75 NW16 29.73R WCI 23  
NEW YORK CITY PTCLDY 42 27 55 NW20G32 29.74S  

 
 
ANZALL-060300-  
MARINE OBSERVATIONS  
 
STATION/POSITION TIME TEMP WIND PRES VSBY WAVE
 
AIR SEA DIR/SP/G HT/PER  
(UTC) (F) (DEG/KT/KT) (MB) (MI) (FT/S)  
BOSTON BUOY 0140 39 49 300/ 31/ 41 992.9R  
BUZZARDS BAY 0100 300/ 38/ 42 997.0R  
NANTUCKET SOUND 0140 50 280/ 33/ 43 N/A  
MASS BAY-STELLWA NOT AVBL  
ISLE OF SHOALS 0100 35 320/ 35/ 40 989.9R  
S OF BLOCK IS 0126 56 N/A 14/ 7  

 
   
.....................KEY......................
 
 
SKY/WX - SKY CONDITION/PRESENT WEATHER  
TMP - TEMPERATURE IN FAHRENHEIT  
DWPT - DEWPOINT IN FAHRENHEIT  
RH - RELATIVE HUMIDITY IN PERCENT  
WIND - DIRECTION AND SPEED IN MPH  
PRES - MEAN SEA LEVEL PRESSURE IN INCHES OF HG  
WCI - WIND CHILL INDEX  
VSB - VISIBILITY IN MILES  
HX - HEAT INDEX  
TC - TEMPERATURE IN CELSIUS  
VRB - VARIABLE WIND DIRECTION  
N/A - NOT AVAILABLE  
 
 
CLICK HERE TO GO TO PREVIOUS BULLETINS.

The Nexlab MA Page
The Nexlab RI Page
The Nexlab NH Page
The Nexlab CT Page Main Text Page